Location: Barcelona
(41.3829°N, 2.1774°E)
Time: 20:55:39
(UTC+00:00)

ISS - Pass Details

Date: 09 July 2025
Orbit: 413 x 417 km, 51.6° (Epoch: 13 July)

Event Time Altitude Azimuth Distance (km) Brightness Sun altitude
Rises 23:10:38 0° 294° (WNW) 2,353 0.5 -25.5°
Reaches altitude 10° 23:13:28 10° 320° (NW) 1,492 -0.2 -25.6°
Maximum altitude 23:15:24 14° 356° (N) 1,251 -0.5 -25.7°
Drops below altitude 10° 23:17:21 10° 31° (NNE) 1,494 -0.4 -25.7°
Sets 23:20:11 0° 57° (ENE) 2,358 0.3 -25.8°
